This is the latest recevied weather packets stored in our database for station/object KC9DRE. If no packets are shown the sender has not sent any weather packets the latest 10 day(s).
| Time | Temp. | Humidity | Pressure | Rain* | Wind** | Luminosity | Snow |
|---|---|---|---|---|---|---|---|
| 1787775143 | 31.67° C | 51% | 1015.2 hPa | 0 mm | - | 216 W/m² | - |
| 1787774843 | 32.22° C | 54% | 1015.3 hPa | 0 mm | - | 171 W/m² | - |
| 1787774542 | 32.22° C | 52% | 1015.3 hPa | 0 mm | - | 643 W/m² | - |
| 1787774242 | 32.22° C | 52% | 1015.2 hPa | 0 mm | - | 680 W/m² | - |
| 1787773941 | 31.67° C | 51% | 1015.3 hPa | 0 mm | - | 664 W/m² | - |
| 1787773640 | 32.22° C | 53% | 1015.2 hPa | 0 mm | - | 317 W/m² | - |
| 1787773336 | 32.22° C | 53% | 1015.4 hPa | 0 mm | - | 656 W/m² | - |
| 1787773031 | 32.22° C | 52% | 1015.3 hPa | 0 mm | - | 661 W/m² | - |
| 1787772727 | 32.22° C | 52% | 1015.5 hPa | 0 mm | - | 678 W/m² | - |
| 1787772425 | 32.22° C | 49% | 1015.2 hPa | 0 mm | - | 680 W/m² | - |
| 1787772124 | 32.22° C | 50% | 1015.4 hPa | 0 mm | - | 689 W/m² | - |
| 1787771823 | 31.67° C | 55% | 1015.5 hPa | 0 mm | - | 700 W/m² | - |
| 1787771522 | 32.22° C | 51% | 1015.6 hPa | 0 mm | - | 708 W/m² | - |
| 1787771218 | 32.22° C | 50% | 1015.6 hPa | 0 mm | - | 713 W/m² | - |
| 1787770913 | 31.67° C | 50% | 1015.9 hPa | 0 mm | - | 714 W/m² | - |
| 1787770611 | 31.11° C | 54% | 1015.8 hPa | 0 mm | - | 726 W/m² | - |
| 1787770306 | 31.67° C | 49% | 1015.8 hPa | 0 mm | - | 732 W/m² | - |
| 1787770004 | 31.67° C | 53% | 1015.9 hPa | 0 mm | - | 748 W/m² | - |
| 1787769699 | 31.67° C | 53% | 1015.9 hPa | 0 mm | - | 763 W/m² | - |
| 1787769397 | 31.67° C | 51% | 1016.1 hPa | 0 mm | - | 658 W/m² | - |
| 1787769093 | 31.11° C | 54% | 1015.8 hPa | 0 mm | - | 783 W/m² | - |
| 1787768788 | 31.11° C | 55% | 1016.1 hPa | 0 mm | - | 790 W/m² | - |
| 1787768484 | 31.11° C | 53% | 1016.1 hPa | 0 mm | - | 804 W/m² | - |
| 1787768180 | 31.11° C | 51% | 1016.2 hPa | 0 mm | - | 801 W/m² | - |
| 1787767875 | 31.11° C | 55% | 1016.1 hPa | 0 mm | - | 784 W/m² | - |
* Rain latest hour (hover to see other rain measurements)
** Current wind speed in m/s (hover to see current wind gust speed)